Regional Weather Roundup
Issued by NWS Green Bay, WI

Home | Current Version | Previous Version | Graphics & Text | Print | Product List | Glossary Off
Versions: 1 2 3 4 5 6 7 8 9 10 11 12 13 14 15 16 17 18 19 20 21 22 23 24 25 26 27 28 29 30 31 32 33 34 35 36 37 38 39 40 41 42 43 44 45 46 47 48 49 50

000
ASUS43 KGRB 251411
RWRGRB

NORTH-CENTRAL AND NORTHEAST WISCONSIN REGIONAL WEATHER ROUNDUP
NATIONAL WEATHER SERVICE GREEN BAY WI
900 AM CDT TUE APR 25 2017

WIZ005-009-010>012-018-019-251500-
NORTH CENTRAL WISCONSIN

CITY           SKY/WX    TMP DP  RH WIND       PRES   REMARKS
IRONWOOD       CLOUDY    57  35  43 S12G18    29.58F
MANITOWISH WTR PTSUNNY   55  35  47 S12G18    29.61S
ARBOR VITAE    MOSUNNY   57  37  48 SE9       29.61F
EAGLE RIVER    CLOUDY    56  33  41 S10G16    29.63F
LAND O LAKES   CLOUDY    54  35  48 SE9       29.66S
RHINELANDER    PTSUNNY   58  37  45 S9        29.64F
PHILLIPS       PTSUNNY   57  36  45 S8G17     29.59R
ANTIGO         PTSUNNY   53  40  59 SE14      29.66F
TOMAHAWK       PTSUNNY   55  37  50 CALM      29.63F
MERRILL        CLOUDY    56  38  52 SE10G17   29.64F
$$

WIZ013-073-251500-
NORTHEAST WISCONSIN

CITY           SKY/WX    TMP DP  RH WIND       PRES   REMARKS
IRON MOUNTAIN  MOSUNNY   53  39  59 SE15      29.69S
MARINETTE      PTSUNNY   53  44  71 S14       29.72F
OCONTO         MOSUNNY   55  44  64 S14G20    29.70F
$$

WIZ017-030-035>037-045-251500-
CENTRAL WISCONSIN

CITY           SKY/WX    TMP DP  RH WIND       PRES   REMARKS
MEDFORD        MOSUNNY   57  38  49 SE12G18   29.60S
WAUSAU         PTSUNNY   59  39  47 SE14      29.62F
MOSINEE        PTSUNNY   54  39  58 SE12      29.64F
MARSHFIELD     PTSUNNY   59  38  45 SE12      29.59F
WISC RAPIDS    SUNNY     62  40  44 S9        29.62
STEVENS POINT  SUNNY     59  39  48 SE10      29.64F
WAUPACA        SUNNY     62  43  50 SE8       29.65F
SHAWANO        CLOUDY    58  42  55 SE6       29.69S
CLINTONVILLE   MOSUNNY   57  41  54 SE7       29.67F
WAUTOMA        SUNNY     62  44  51 SE10      29.64F
$$

WIZ038-039-048-051-251500-
FOX VALLEY

CITY           SKY/WX    TMP DP  RH WIND       PRES   REMARKS
NWS GREEN BAY  MOSUNNY   58  48  69 SE15      29.69F
APPLETON       MOSUNNY   55  43  62 SE10      29.67S
OSHKOSH        MOSUNNY   60  45  57 S13       29.66F
FOND DU LAC    MOSUNNY   60  45  57 SE12      29.67F
$$

WIZ022-050-052-251500-
EAST CENTRAL WISCONSIN

CITY           SKY/WX    TMP DP  RH WIND       PRES   REMARKS
EPHRAIM        FAIR      53  44  72 S12G20    29.71F
WASHINGTON ISL FAIR      52  42  69 S14G23    29.72F
STURGEON BAY   MOSUNNY   53  44  71 S21       29.71F
MANITOWOC      SUNNY     52  44  74 S20G26    29.73S
SHEBOYGAN      SUNNY     53  46  77 S14G21    29.71F
$$

LMZ563-521-522-541>543-251500-
LAKESHORE

STATION/POSITION TIME  TEMP    WIND        PRES    VSBY  WAVE
                       AIR SEA DIR/SP/G                  HT/PER
                 (UTC) (F)     (DEG/KT/KT) (MB)    (MI)  (FT/S)
SHEBOYGAN LKSHOR 1400   45     180/  7/  8 1006.5F
KEWAUNEE LKSHORE 1348   47     180/ 10/ 12 1006.7S
NORTHPORT PIER   1340   47     150/ 12/ 15 1007.1S
N MID LAKE BUOY  1350   44 37  140/  6/  6 1008.6F         1/ 3
CHAMBERS ISLAND  1340   54     140/  8/ 12 1006.1F
MENOMINEE LKSHOR 1348   50     170/  9/ 13 1005.5F
$$



USA.gov is the U.S. government's official web portal to all federal, state and local government web resources and services.